"Sample Date","Sample Time","Sensor Name","Sample Value","Units","Flow Rate","Sample Interval","Sample Volume","Laser Status","Number Channels","Micron Size 0","Counts/Channel 0","Micron Size 1","Counts/Channel 1","Micron Size 2","Counts/Channel 2","Micron Size 3","Counts/Channel 3","Micron Size 4","Counts/Channel 4","Micron Size 5","Counts/Channel 5","Micron Size 6","Counts/Channel 6","Micron Size 7","Counts/Channel 7","Micron Size 8","Counts/Channel 8","Micron Size 9","Counts/Channel 9","Micron Size 10","Counts/Channel 10","Micron Size 11","Counts/Channel 11","Micron Size 12","Counts/Channel 12","Micron Size 13","Counts/Channel 13","Micron Size 14","Counts/Channel 14","Micron Size 15","Counts/Channel 15","Micron Size 16","Counts/Channel 16","Micron Size 17","Counts/Channel 17","Micron Size 18","Counts/Channel 18","Micron Size 19","Counts/Channel 19","Micron Size 20","Counts/Channel 20","Micron Size 21","Counts/Channel 21","Micron Size 22","Counts/Channel 22","Micron Size 23","Counts/Channel 23","Micron Size 24","Counts/Channel 24","Micron Size 25","Counts/Channel 25","Micron Size 26","Counts/Channel 26","Micron Size 27","Counts/Channel 27","Micron Size 28","Counts/Channel 28","Micron Size 29","Counts/Channel 29","Micron Size 30","Counts/Channel 30","Micron Size 31","Counts/Channel 31"
"07/01/06","03:00:04","AMMA06",66298.000,"cc",28286.959,6.00,2828.696,1,6,0.100,36583.000,0.200,23025.000,0.300,5375.000,0.500,784.000,1.000,529.000,5.000,2.000
"07/01/06","03:00:10","AMMA06",66151.000,"cc",28310.623,6.00,2831.063,1,6,0.100,36448.000,0.200,23240.000,0.300,5149.000,0.500,786.000,1.000,526.000,5.000,2.000
"07/01/06","03:00:16","AMMA06",66112.000,"cc",28317.231,6.00,2831.723,1,6,0.100,36415.000,0.200,22997.000,0.300,5316.000,0.500,821.000,1.000,563.000,5.000,0
"07/01/06","03:00:22","AMMA06",66193.000,"cc",28342.098,6.00,2834.210,1,6,0.100,36355.000,0.200,23106.000,0.300,5418.000,0.500,783.000,1.000,531.000,5.000,0
"07/01/06","03:00:28","AMMA06",66266.000,"cc",28294.731,6.00,2829.473,1,6,0.100,36436.000,0.200,23198.000,0.300,5305.000,0.500,770.000,1.000,557.000,5.000,0
"07/01/06","03:00:34","AMMA06",66237.000,"cc",28348.033,6.00,2834.804,1,6,0.100,36538.000,0.200,23137.000,0.300,5327.000,0.500,732.000,1.000,502.000,5.000,1.000
"07/01/06","03:00:40","AMMA06",65897.000,"cc",28355.174,6.00,2835.518,1,6,0.100,36365.000,0.200,23135.000,0.300,5112.000,0.500,748.000,1.000,537.000,5.000,0
"07/01/06","03:00:46","AMMA06",66103.000,"cc",28289.088,6.00,2828.909,1,6,0.100,36696.000,0.200,22813.000,0.300,5262.000,0.500,758.000,1.000,574.000,5.000,0
"07/01/06","03:00:52","AMMA06",66193.000,"cc",28297.020,6.00,2829.702,1,6,0.100,36505.000,0.200,23079.000,0.300,5295.000,0.500,761.000,1.000,551.000,5.000,2.000
"07/01/06","03:00:58","AMMA06",66140.000,"cc",28350.680,6.00,2835.068,1,6,0.100,36732.000,0.200,23029.000,0.300,5089.000,0.500,743.000,1.000,547.000,5.000,0
"07/01/06","03:01:04","AMMA06",65633.000,"cc",28285.645,6.00,2828.565,1,6,0.100,36368.000,0.200,22761.000,0.300,5145.000,0.500,809.000,1.000,547.000,5.000,3.000
"07/01/06","03:01:10","AMMA06",65551.000,"cc",28285.115,6.00,2828.512,1,6,0.100,36087.000,0.200,22861.000,0.300,5285.000,0.500,783.000,1.000,535.000,5.000,0
"07/01/06","03:01:16","AMMA06",65967.000,"cc",28336.703,6.00,2833.670,1,6,0.100,36587.000,0.200,22863.000,0.300,5263.000,0.500,719.000,1.000,533.000,5.000,2.000
"07/01/06","03:01:22","AMMA06",65892.000,"cc",28333.203,6.00,2833.321,1,6,0.100,36607.000,0.200,22816.000,0.300,5182.000,0.500,741.000,1.000,546.000,5.000,0
"07/01/06","03:01:28","AMMA06",65904.000,"cc",28275.645,6.00,2827.565,1,6,0.100,36515.000,0.200,22856.000,0.300,5247.000,0.500,751.000,1.000,535.000,5.000,0
"07/01/06","03:01:34","AMMA06",65984.000,"cc",28339.531,6.00,2833.953,1,6,0.100,36371.000,0.200,22918.000,0.300,5369.000,0.500,775.000,1.000,551.000,5.000,0
"07/01/06","03:01:40","AMMA06",64946.000,"cc",28327.547,6.00,2832.755,1,6,0.100,35932.000,0.200,22569.000,0.300,5125.000,0.500,799.000,1.000,520.000,5.000,1.000
"07/01/06","03:01:46","AMMA06",66137.000,"cc",28326.961,6.00,2832.696,1,6,0.100,36756.000,0.200,22948.000,0.300,5166.000,0.500,756.000,1.000,511.000,5.000,0
"07/01/06","03:01:52","AMMA06",65518.000,"cc",28344.262,6.00,2834.426,1,6,0.100,36052.000,0.200,23015.000,0.300,5132.000,0.500,771.000,1.000,547.000,5.000,1.000
"07/01/06","03:01:58","AMMA06",65489.000,"cc",28257.754,6.00,2825.776,1,6,0.100,36177.000,0.200,22836.000,0.300,5217.000,0.500,738.000,1.000,520.000,5.000,1.000
"07/01/06","03:02:04","AMMA06",66140.000,"cc",28362.604,6.00,2836.261,1,6,0.100,36612.000,0.200,22891.000,0.300,5281.000,0.500,809.000,1.000,547.000,5.000,0
"07/01/06","03:02:10","AMMA06",65652.000,"cc",28342.514,6.00,2834.252,1,6,0.100,36306.000,0.200,22776.000,0.300,5148.000,0.500,855.000,1.000,567.000,5.000,0
"07/01/06","03:02:16","AMMA06",65469.000,"cc",28286.832,6.00,2828.683,1,6,0.100,35940.000,0.200,22960.000,0.300,5224.000,0.500,791.000,1.000,554.000,5.000,0
"07/01/06","03:02:22","AMMA06",65722.000,"cc",28309.791,6.00,2830.979,1,6,0.100,36194.000,0.200,22870.000,0.300,5235.000,0.500,852.000,1.000,571.000,5.000,0
"07/01/06","03:02:28","AMMA06",65510.000,"cc",28321.996,6.00,2832.200,1,6,0.100,36253.000,0.200,22744.000,0.300,5197.000,0.500,770.000,1.000,546.000,5.000,0
"07/01/06","03:02:34","AMMA06",65845.000,"cc",28327.078,6.00,2832.708,1,6,0.100,36209.000,0.200,23018.000,0.300,5189.000,0.500,839.000,1.000,590.000,5.000,0
"07/01/06","03:02:40","AMMA06",65568.000,"cc",28353.326,6.00,2835.333,1,6,0.100,36258.000,0.200,22715.000,0.300,5238.000,0.500,776.000,1.000,580.000,5.000,1.000
"07/01/06","03:02:46","AMMA06",65191.000,"cc",28322.850,6.00,2832.285,1,6,0.100,35793.000,0.200,22913.000,0.300,5179.000,0.500,759.000,1.000,545.000,5.000,2.000
"07/01/06","03:02:52","AMMA06",65790.000,"cc",28288.158,6.00,2828.816,1,6,0.100,36528.000,0.200,22740.000,0.300,5175.000,0.500,803.000,1.000,542.000,5.000,2.000
"07/01/06","03:02:58","AMMA06",65578.000,"cc",28317.768,6.00,2831.777,1,6,0.100,36162.000,0.200,22806.000,0.300,5264.000,0.500,769.000,1.000,577.000,5.000,0
"07/01/06","03:03:04","AMMA06",65583.000,"cc",28304.082,6.00,2830.408,1,6,0.100,36314.000,0.200,22757.000,0.300,5186.000,0.500,796.000,1.000,530.000,5.000,0
"07/01/06","03:03:10","AMMA06",66087.000,"cc",28345.641,6.00,2834.564,1,6,0.100,36688.000,0.200,22980.000,0.300,5119.000,0.500,777.000,1.000,523.000,5.000,0
"07/01/06","03:03:16","AMMA06",65490.000,"cc",28283.363,6.00,2828.336,1,6,0.100,36024.000,0.200,22793.000,0.300,5328.000,0.500,797.000,1.000,548.000,5.000,0
"07/01/06","03:03:22","AMMA06",65195.000,"cc",28294.510,6.00,2829.451,1,6,0.100,36158.000,0.200,22585.000,0.300,5125.000,0.500,797.000,1.000,529.000,5.000,1.000
"07/01/06","03:03:28","AMMA06",65271.000,"cc",28364.174,6.00,2836.418,1,6,0.100,36069.000,0.200,22739.000,0.300,5131.000,0.500,781.000,1.000,549.000,5.000,2.000
"07/01/06","03:03:34","AMMA06",65004.000,"cc",28319.732,6.00,2831.973,1,6,0.100,35942.000,0.200,22498.000,0.300,5265.000,0.500,792.000,1.000,505.000,5.000,2.000
"07/01/06","03:03:40","AMMA06",65291.000,"cc",28300.541,6.00,2830.054,1,6,0.100,36201.000,0.200,22658.000,0.300,5082.000,0.500,780.000,1.000,570.000,5.000,0
"07/01/06","03:03:46","AMMA06",65650.000,"cc",28316.277,6.00,2831.628,1,6,0.100,36472.000,0.200,22774.000,0.300,5059.000,0.500,805.000,1.000,539.000,5.000,1.000
"07/01/06","03:03:52","AMMA06",65605.000,"cc",28336.168,6.00,2833.617,1,6,0.100,36511.000,0.200,22560.000,0.300,5228.000,0.500,775.000,1.000,530.000,5.000,1.000
"07/01/06","03:03:58","AMMA06",65261.000,"cc",28312.975,6.00,2831.298,1,6,0.100,36477.000,0.200,22566.000,0.300,4891.000,0.500,788.000,1.000,538.000,5.000,1.000
"07/01/06","03:04:04","AMMA06",65148.000,"cc",28282.709,6.00,2828.271,1,6,0.100,36409.000,0.200,22314.000,0.300,5127.000,0.500,724.000,1.000,574.000,5.000,0
"07/01/06","03:04:10","AMMA06",65848.000,"cc",28290.551,6.00,2829.055,1,6,0.100,36892.000,0.200,22478.000,0.300,5135.000,0.500,797.000,1.000,545.000,5.000,1.000
"07/01/06","03:04:16","AMMA06",65390.000,"cc",28365.982,6.00,2836.598,1,6,0.100,36474.000,0.200,22547.000,0.300,5037.000,0.500,780.000,1.000,551.000,5.000,1.000
"07/01/06","03:04:22","AMMA06",64830.000,"cc",28301.318,6.00,2830.132,1,6,0.100,36139.000,0.200,22436.000,0.300,4982.000,0.500,758.000,1.000,513.000,5.000,2.000
"07/01/06","03:04:28","AMMA06",65213.000,"cc",28326.797,6.00,2832.680,1,6,0.100,36512.000,0.200,22261.000,0.300,5095.000,0.500,803.000,1.000,541.000,5.000,1.000
"07/01/06","03:04:34","AMMA06",65083.000,"cc",28302.740,6.00,2830.274,1,6,0.100,36231.000,0.200,22482.000,0.300,5093.000,0.500,735.000,1.000,541.000,5.000,1.000
"07/01/06","03:04:40","AMMA06",65282.000,"cc",28371.854,6.00,2837.186,1,6,0.100,36367.000,0.200,22443.000,0.300,5156.000,0.500,789.000,1.000,526.000,5.000,1.000
"07/01/06","03:04:46","AMMA06",64981.000,"cc",28333.881,6.00,2833.388,1,6,0.100,36152.000,0.200,22244.000,0.300,5200.000,0.500,821.000,1.000,562.000,5.000,2.000
"07/01/06","03:04:52","AMMA06",64800.000,"cc",28298.135,6.00,2829.814,1,6,0.100,36094.000,0.200,22285.000,0.300,5046.000,0.500,815.000,1.000,560.000,5.000,0
"07/01/06","03:04:58","AMMA06",65204.000,"cc",28293.475,6.00,2829.348,1,6,0.100,36206.000,0.200,22497.000,0.300,5223.000,0.500,739.000,1.000,538.000,5.000,1.000
"07/01/06","03:05:04","AMMA06",64711.000,"cc",28313.492,6.00,2831.349,1,6,0.100,35879.000,0.200,22446.000,0.300,5062.000,0.500,797.000,1.000,526.000,5.000,1.000
"07/01/06","03:05:10","AMMA06",65493.000,"cc",28304.070,6.00,2830.407,1,6,0.100,36403.000,0.200,22698.000,0.300,5097.000,0.500,762.000,1.000,533.000,5.000,0
"07/01/06","03:05:16","AMMA06",64331.000,"cc",28300.492,6.00,2830.049,1,6,0.100,35813.000,0.200,22218.000,0.300,4995.000,0.500,807.000,1.000,496.000,5.000,2.000
"07/01/06","03:05:22","AMMA06",65240.000,"cc",28303.018,6.00,2830.302,1,6,0.100,36298.000,0.200,22591.000,0.300,5023.000,0.500,794.000,1.000,534.000,5.000,0
"07/01/06","03:05:28","AMMA06",65584.000,"cc",28337.031,6.00,2833.703,1,6,0.100,36624.000,0.200,22635.000,0.300,5026.000,0.500,751.000,1.000,548.000,5.000,0
"07/01/06","03:05:34","AMMA06",64834.000,"cc",28366.412,6.00,2836.641,1,6,0.100,36118.000,0.200,22313.000,0.300,5120.000,0.500,724.000,1.000,557.000,5.000,2.000
"07/01/06","03:05:40","AMMA06",64597.000,"cc",28332.813,6.00,2833.282,1,6,0.100,35799.000,0.200,22377.000,0.300,5130.000,0.500,763.000,1.000,528.000,5.000,0
"07/01/06","03:05:46","AMMA06",65318.000,"cc",28351.371,6.00,2835.137,1,6,0.100,36201.000,0.200,22561.000,0.300,5170.000,0.500,799.000,1.000,587.000,5.000,0
"07/01/06","03:05:52","AMMA06",65414.000,"cc",28292.469,6.00,2829.247,1,6,0.100,36225.000,0.200,22894.000,0.300,5010.000,0.500,747.000,1.000,538.000,5.000,0
"07/01/06","03:05:58","AMMA06",64913.000,"cc",28272.293,6.00,2827.230,1,6,0.100,35753.000,0.200,22612.000,0.300,5169.000,0.500,768.000,1.000,611.000,5.000,0
"07/01/06","03:06:04","AMMA06",65189.000,"cc",28317.539,6.00,2831.754,1,6,0.100,35759.000,0.200,22769.000,0.300,5360.000,0.500,773.000,1.000,528.000,5.000,0
"07/01/06","03:06:10","AMMA06",65092.000,"cc",28308.197,6.00,2830.820,1,6,0.100,35837.000,0.200,22687.000,0.300,5234.000,0.500,782.000,1.000,551.000,5.000,1.000
"07/01/06","03:06:16","AMMA06",65421.000,"cc",28336.318,6.00,2833.632,1,6,0.100,36066.000,0.200,22849.000,0.300,5173.000,0.500,779.000,1.000,551.000,5.000,3.000
"07/01/06","03:06:22","AMMA06",65381.000,"cc",28315.160,6.00,2831.516,1,6,0.100,35922.000,0.200,22938.000,0.300,5225.000,0.500,765.000,1.000,531.000,5.000,0
"07/01/06","03:06:28","AMMA06",65473.000,"cc",28337.285,6.00,2833.729,1,6,0.100,36093.000,0.200,22855.000,0.300,5155.000,0.500,798.000,1.000,571.000,5.000,1.000
"07/01/06","03:06:34","AMMA06",65244.000,"cc",28296.361,6.00,2829.636,1,6,0.100,36034.000,0.200,22629.000,0.300,5242.000,0.500,752.000,1.000,586.000,5.000,1.000
"07/01/06","03:06:40","AMMA06",64764.000,"cc",28341.250,6.00,2834.125,1,6,0.100,35989.000,0.200,22306.000,0.300,5122.000,0.500,788.000,1.000,559.000,5.000,0
"07/01/06","03:06:46","AMMA06",65194.000,"cc",28308.533,6.00,2830.854,1,6,0.100,35921.000,0.200,22757.000,0.300,5204.000,0.500,776.000,1.000,535.000,5.000,1.000
"07/01/06","03:06:52","AMMA06",65458.000,"cc",28316.293,6.00,2831.629,1,6,0.100,36266.000,0.200,22566.000,0.300,5249.000,0.500,832.000,1.000,544.000,5.000,1.000
"07/01/06","03:06:58","AMMA06",65609.000,"cc",28305.063,6.00,2830.506,1,6,0.100,36408.000,0.200,22627.000,0.300,5236.000,0.500,759.000,1.000,579.000,5.000,0
"07/01/06","03:07:04","AMMA06",65284.000,"cc",28349.951,6.00,2834.995,1,6,0.100,36168.000,0.200,22568.000,0.300,5215.000,0.500,768.000,1.000,565.000,5.000,0
"07/01/06","03:07:10","AMMA06",65306.000,"cc",28305.291,6.00,2830.529,1,6,0.100,36445.000,0.200,22399.000,0.300,5145.000,0.500,735.000,1.000,582.000,5.000,0
"07/01/06","03:07:16","AMMA06",65103.000,"cc",28328.639,6.00,2832.864,1,6,0.100,36017.000,0.200,22644.000,0.300,5115.000,0.500,809.000,1.000,518.000,5.000,0
"07/01/06","03:07:22","AMMA06",65236.000,"cc",28311.684,6.00,2831.169,1,6,0.100,36021.000,0.200,22763.000,0.300,5120.000,0.500,799.000,1.000,533.000,5.000,0
"07/01/06","03:07:28","AMMA06",65208.000,"cc",28287.225,6.00,2828.723,1,6,0.100,36313.000,0.200,22486.000,0.300,5094.000,0.500,776.000,1.000,539.000,5.000,0
"07/01/06","03:07:34","AMMA06",65273.000,"cc",28316.756,6.00,2831.676,1,6,0.100,36239.000,0.200,22405.000,0.300,5249.000,0.500,783.000,1.000,597.000,5.000,0
"07/01/06","03:07:40","AMMA06",65281.000,"cc",28368.428,6.00,2836.843,1,6,0.100,36096.000,0.200,22665.000,0.300,5189.000,0.500,771.000,1.000,559.000,5.000,1.000
"07/01/06","03:07:46","AMMA06",64772.000,"cc",28276.453,6.00,2827.646,1,6,0.100,35982.000,0.200,22415.000,0.300,5051.000,0.500,765.000,1.000,558.000,5.000,1.000
"07/01/06","03:07:52","AMMA06",64637.000,"cc",28297.408,6.00,2829.741,1,6,0.100,35851.000,0.200,22326.000,0.300,5137.000,0.500,780.000,1.000,542.000,5.000,1.000
"07/01/06","03:07:58","AMMA06",64796.000,"cc",28316.402,6.00,2831.640,1,6,0.100,35848.000,0.200,22475.000,0.300,5163.000,0.500,779.000,1.000,531.000,5.000,0
"07/01/06","03:08:04","AMMA06",64337.000,"cc",28337.479,6.00,2833.748,1,6,0.100,35751.000,0.200,22203.000,0.300,5116.000,0.500,757.000,1.000,510.000,5.000,0
"07/01/06","03:08:10","AMMA06",64438.000,"cc",28334.311,6.00,2833.431,1,6,0.100,36142.000,0.200,22157.000,0.300,4822.000,0.500,751.000,1.000,566.000,5.000,0
"07/01/06","03:08:16","AMMA06",64527.000,"cc",28287.184,6.00,2828.719,1,6,0.100,35882.000,0.200,22228.000,0.300,5057.000,0.500,811.000,1.000,549.000,5.000,0
"07/01/06","03:08:22","AMMA06",64123.000,"cc",28332.875,6.00,2833.288,1,6,0.100,35648.000,0.200,22151.000,0.300,4931.000,0.500,835.000,1.000,558.000,5.000,0
"07/01/06","03:08:28","AMMA06",63872.000,"cc",28292.432,6.00,2829.243,1,6,0.100,35465.000,0.200,22071.000,0.300,4991.000,0.500,796.000,1.000,548.000,5.000,1.000
"07/01/06","03:08:34","AMMA06",63992.000,"cc",28330.018,6.00,2833.002,1,6,0.100,35516.000,0.200,22130.000,0.300,4974.000,0.500,834.000,1.000,538.000,5.000,0
"07/01/06","03:08:40","AMMA06",64056.000,"cc",28308.981,6.00,2830.898,1,6,0.100,35829.000,0.200,21997.000,0.300,4945.000,0.500,750.000,1.000,535.000,5.000,0
"07/01/06","03:08:46","AMMA06",64314.000,"cc",28335.781,6.00,2833.578,1,6,0.100,35824.000,0.200,22149.000,0.300,4959.000,0.500,829.000,1.000,553.000,5.000,0
"07/01/06","03:08:52","AMMA06",63998.000,"cc",28295.406,6.00,2829.541,1,6,0.100,35525.000,0.200,22135.000,0.300,4983.000,0.500,790.000,1.000,565.000,5.000,0
"07/01/06","03:08:58","AMMA06",63666.000,"cc",28349.186,6.00,2834.919,1,6,0.100,35371.000,0.200,22075.000,0.300,4862.000,0.500,776.000,1.000,582.000,5.000,0
"07/01/06","03:09:04","AMMA06",64018.000,"cc",28315.018,6.00,2831.502,1,6,0.100,35606.000,0.200,22139.000,0.300,4954.000,0.500,744.000,1.000,574.000,5.000,1.000
"07/01/06","03:09:10","AMMA06",63611.000,"cc",28284.125,6.00,2828.413,1,6,0.100,35171.000,0.200,22142.000,0.300,4970.000,0.500,782.000,1.000,543.000,5.000,3.000
"07/01/06","03:09:16","AMMA06",63933.000,"cc",28311.754,6.00,2831.176,1,6,0.100,35494.000,0.200,22186.000,0.300,4862.000,0.500,824.000,1.000,566.000,5.000,1.000
"07/01/06","03:09:22","AMMA06",63787.000,"cc",28284.588,6.00,2828.459,1,6,0.100,35593.000,0.200,21965.000,0.300,4853.000,0.500,765.000,1.000,608.000,5.000,3.000
"07/01/06","03:09:28","AMMA06",64026.000,"cc",28317.783,6.00,2831.779,1,6,0.100,35482.000,0.200,22262.000,0.300,4924.000,0.500,779.000,1.000,579.000,5.000,0
"07/01/06","03:09:34","AMMA06",64098.000,"cc",28361.598,6.00,2836.160,1,6,0.100,35585.000,0.200,22047.000,0.300,5050.000,0.500,849.000,1.000,566.000,5.000,1.000
"07/01/06","03:09:40","AMMA06",64269.000,"cc",28315.811,6.00,2831.581,1,6,0.100,35896.000,0.200,22095.000,0.300,4854.000,0.500,850.000,1.000,572.000,5.000,2.000
"07/01/06","03:09:46","AMMA06",64279.000,"cc",28300.121,6.00,2830.012,1,6,0.100,35899.000,0.200,22198.000,0.300,4894.000,0.500,765.000,1.000,522.000,5.000,1.000
"07/01/06","03:09:52","AMMA06",64145.000,"cc",28343.984,6.00,2834.399,1,6,0.100,35793.000,0.200,22061.000,0.300,4962.000,0.500,790.000,1.000,538.000,5.000,1.000
"07/01/06","03:09:58","AMMA06",63927.000,"cc",28360.818,6.00,2836.082,1,6,0.100,35398.000,0.200,22201.000,0.300,4914.000,0.500,836.000,1.000,578.000,5.000,0
"07/01/06","03:10:04","AMMA06",64033.000,"cc",28289.857,6.00,2828.986,1,6,0.100,35696.000,0.200,22078.000,0.300,4889.000,0.500,790.000,1.000,578.000,5.000,2.000
"07/01/06","03:10:10","AMMA06",63860.000,"cc",28349.256,6.00,2834.926,1,6,0.100,35368.000,0.200,22095.000,0.300,4985.000,0.500,811.000,1.000,600.000,5.000,1.000
"07/01/06","03:10:16","AMMA06",63895.000,"cc",28282.176,6.00,2828.218,1,6,0.100,35490.000,0.200,22089.000,0.300,4996.000,0.500,742.000,1.000,578.000,5.000,0
"07/01/06","03:10:22","AMMA06",64002.000,"cc",28280.652,6.00,2828.065,1,6,0.100,35469.000,0.200,22251.000,0.300,4915.000,0.500,800.000,1.000,567.000,5.000,0
"07/01/06","03:10:28","AMMA06",63384.000,"cc",28384.404,6.00,2838.441,1,6,0.100,34826.000,0.200,22160.000,0.300,4990.000,0.500,819.000,1.000,586.000,5.000,3.000
"07/01/06","03:10:34","AMMA06",63162.000,"cc",28321.215,6.00,2832.122,1,6,0.100,35001.000,0.200,21820.000,0.300,4920.000,0.500,855.000,1.000,565.000,5.000,1.000
"07/01/06","03:10:40","AMMA06",63184.000,"cc",28305.209,6.00,2830.521,1,6,0.100,35031.000,0.200,21913.000,0.300,4888.000,0.500,834.000,1.000,518.000,5.000,0
"07/01/06","03:10:46","AMMA06",63529.000,"cc",28326.191,6.00,2832.619,1,6,0.100,35110.000,0.200,22129.000,0.300,4883.000,0.500,812.000,1.000,595.000,5.000,0
"07/01/06","03:10:52","AMMA06",63303.000,"cc",28304.500,6.00,2830.450,1,6,0.100,34886.000,0.200,21945.000,0.300,5070.000,0.500,818.000,1.000,583.000,5.000,1.000
"07/01/06","03:10:58","AMMA06",63215.000,"cc",28295.184,6.00,2829.519,1,6,0.100,34932.000,0.200,21853.000,0.300,5080.000,0.500,815.000,1.000,534.000,5.000,1.000
"07/01/06","03:11:04","AMMA06",63412.000,"cc",28336.822,6.00,2833.682,1,6,0.100,35052.000,0.200,22111.000,0.300,4906.000,0.500,775.000,1.000,567.000,5.000,1.000
"07/01/06","03:11:10","AMMA06",63004.000,"cc",28287.471,6.00,2828.747,1,6,0.100,34806.000,0.200,21900.000,0.300,4885.000,0.500,809.000,1.000,604.000,5.000,0
"07/01/06","03:11:16","AMMA06",63594.000,"cc",28289.656,6.00,2828.966,1,6,0.100,35228.000,0.200,21927.000,0.300,5004.000,0.500,830.000,1.000,605.000,5.000,0
"07/01/06","03:11:22","AMMA06",63389.000,"cc",28358.160,6.00,2835.816,1,6,0.100,34930.000,0.200,22141.000,0.300,4983.000,0.500,770.000,1.000,564.000,5.000,1.000
"07/01/06","03:11:28","AMMA06",63628.000,"cc",28343.959,6.00,2834.396,1,6,0.100,35080.000,0.200,22145.000,0.300,5002.000,0.500,793.000,1.000,607.000,5.000,1.000
"07/01/06","03:11:34","AMMA06",63328.000,"cc",28283.305,6.00,2828.331,1,6,0.100,35169.000,0.200,21825.000,0.300,5023.000,0.500,789.000,1.000,520.000,5.000,2.000
"07/01/06","03:11:40","AMMA06",63781.000,"cc",28230.580,6.00,2823.058,1,6,0.100,35003.000,0.200,22257.000,0.300,5108.000,0.500,826.000,1.000,586.000,5.000,1.000
"07/01/06","03:11:46","AMMA06",63777.000,"cc",28307.406,6.00,2830.741,1,6,0.100,35103.000,0.200,22196.000,0.300,5129.000,0.500,813.000,1.000,536.000,5.000,0
"07/01/06","03:11:52","AMMA06",64398.000,"cc",28372.977,6.00,2837.298,1,6,0.100,35463.000,0.200,22414.000,0.300,5139.000,0.500,795.000,1.000,585.000,5.000,2.000
"07/01/06","03:11:58","AMMA06",64230.000,"cc",28339.141,6.00,2833.914,1,6,0.100,35175.000,0.200,22548.000,0.300,5138.000,0.500,811.000,1.000,558.000,5.000,0
"07/01/06","03:12:04","AMMA06",63991.000,"cc",28295.711,6.00,2829.571,1,6,0.100,35326.000,0.200,22157.000,0.300,5135.000,0.500,797.000,1.000,576.000,5.000,0
"07/01/06","03:12:10","AMMA06",64320.000,"cc",28299.516,6.00,2829.952,1,6,0.100,35357.000,0.200,22604.000,0.300,5000.000,0.500,769.000,1.000,590.000,5.000,0
"07/01/06","03:12:16","AMMA06",64215.000,"cc",28311.699,6.00,2831.170,1,6,0.100,35318.000,0.200,22489.000,0.300,5137.000,0.500,750.000,1.000,521.000,5.000,0
"07/01/06","03:12:22","AMMA06",64780.000,"cc",28296.775,6.00,2829.678,1,6,0.100,35624.000,0.200,22499.000,0.300,5311.000,0.500,778.000,1.000,567.000,5.000,1.000
"07/01/06","03:12:28","AMMA06",64182.000,"cc",28333.125,6.00,2833.313,1,6,0.100,35257.000,0.200,22437.000,0.300,5172.000,0.500,792.000,1.000,523.000,5.000,1.000
"07/01/06","03:12:34","AMMA06",64683.000,"cc",28358.002,6.00,2835.800,1,6,0.100,35455.000,0.200,22683.000,0.300,5214.000,0.500,773.000,1.000,556.000,5.000,2.000
"07/01/06","03:12:40","AMMA06",64163.000,"cc",28320.047,6.00,2832.005,1,6,0.100,35412.000,0.200,22416.000,0.300,5059.000,0.500,743.000,1.000,531.000,5.000,2.000
"07/01/06","03:12:46","AMMA06",64326.000,"cc",28341.451,6.00,2834.145,1,6,0.100,35326.000,0.200,22562.000,0.300,5147.000,0.500,769.000,1.000,522.000,5.000,0
"07/01/06","03:12:52","AMMA06",64348.000,"cc",28310.785,6.00,2831.079,1,6,0.100,35606.000,0.200,22284.000,0.300,5119.000,0.500,750.000,1.000,588.000,5.000,1.000
"07/01/06","03:12:58","AMMA06",63687.000,"cc",28325.758,6.00,2832.576,1,6,0.100,35038.000,0.200,22250.000,0.300,5045.000,0.500,794.000,1.000,559.000,5.000,1.000
"07/01/06","03:13:04","AMMA06",64148.000,"cc",28307.231,6.00,2830.723,1,6,0.100,35235.000,0.200,22438.000,0.300,5123.000,0.500,797.000,1.000,555.000,5.000,0
"07/01/06","03:13:10","AMMA06",63397.000,"cc",28321.744,6.00,2832.175,1,6,0.100,34820.000,0.200,22173.000,0.300,5035.000,0.500,797.000,1.000,571.000,5.000,1.000
"07/01/06","03:13:16","AMMA06",63052.000,"cc",28355.459,6.00,2835.546,1,6,0.100,34814.000,0.200,21990.000,0.300,4919.000,0.500,800.000,1.000,528.000,5.000,1.000
"07/01/06","03:13:22","AMMA06",63042.000,"cc",28300.604,6.00,2830.061,1,6,0.100,34336.000,0.200,22213.000,0.300,5145.000,0.500,784.000,1.000,564.000,5.000,0
"07/01/06","03:13:28","AMMA06",63179.000,"cc",28274.012,6.00,2827.401,1,6,0.100,34741.000,0.200,22038.000,0.300,4983.000,0.500,776.000,1.000,640.000,5.000,1.000
"07/01/06","03:13:34","AMMA06",63142.000,"cc",28310.674,6.00,2831.068,1,6,0.100,34917.000,0.200,21969.000,0.300,4919.000,0.500,789.000,1.000,547.000,5.000,1.000
"07/01/06","03:13:40","AMMA06",63283.000,"cc",28363.578,6.00,2836.358,1,6,0.100,34784.000,0.200,22015.000,0.300,5108.000,0.500,806.000,1.000,570.000,5.000,0
"07/01/06","03:13:46","AMMA06",63077.000,"cc",28344.131,6.00,2834.413,1,6,0.100,34638.000,0.200,22040.000,0.300,5055.000,0.500,790.000,1.000,553.000,5.000,1.000
"07/01/06","03:13:52","AMMA06",62689.000,"cc",28266.727,6.00,2826.673,1,6,0.100,34353.000,0.200,21972.000,0.300,5028.000,0.500,777.000,1.000,559.000,5.000,0
"07/01/06","03:13:58","AMMA06",63309.000,"cc",28297.582,6.00,2829.758,1,6,0.100,34742.000,0.200,22065.000,0.300,5108.000,0.500,832.000,1.000,561.000,5.000,1.000
"07/01/06","03:14:04","AMMA06",63944.000,"cc",28292.223,6.00,2829.222,1,6,0.100,34770.000,0.200,22661.000,0.300,5095.000,0.500,856.000,1.000,561.000,5.000,1.000